Simultaneous Nadir Overpasses (SNOs) Predictions

Prediction of SNOs over PacNW region [( 10.00, 139.50) to ( 22.70, 165.60)] between AQUA and NPP Satellites:

Table of predicted SNOs over PacNW region for the next 30.0 days since TLE Epoch: 12/8/2013
Index Date (AQUA) Time (AQUA) AQUA Lat,Lon Date (NPP) Time (NPP) NPP Lat,Lon Distance(km) Time Diff (sec)
1 12/10/2013 03:32:22 22.18, 147.46 12/10/2013 03:29:01 21.87, 145.93 161.41 201
2 12/15/2013 15:59:59 22.58, 147.34 12/15/2013 16:03:27 24.71, 144.93 340.98 208
3 12/18/2013 02:42:52 22.68, 159.76 12/18/2013 02:39:23 25.05, 157.79 331.65 209
4 12/23/2013 15:10:15 22.63, 159.79 12/23/2013 15:13:20 23.17, 157.21 271.38 185
5 12/26/2013 03:30:58 18.99, 148.35 12/26/2013 03:28:30 18.64, 146.70 178.31 148
6 01/03/2014 02:41:44 21.36, 160.28 01/03/2014 02:38:36 21.02, 158.79 158.47 188




NCC Satellite Simultaneous Nadir Overpasses (SNOs) Prediction Service
